TimeCDT,TemperatureF,Dew PointF,Humidity,Sea Level PressureIn,VisibilityMPH,Wind Direction,Wind SpeedMPH,Gust SpeedMPH,PrecipitationIn,Events,Conditions,WindDirDegrees,DateUTC
12:06 AM,33.8,30.2,87,30.30,1.8,North,19.6,-,0.00,Snow,Light Snow,360,2013-05-03 05:06:00
12:37 AM,32.0,30.2,93,30.29,1.8,North,17.3,23.0,0.02,Snow,Light Snow,360,2013-05-03 05:37:00
12:44 AM,32.0,30.2,93,30.29,1.2,North,16.1,24.2,0.03,Snow,Light Snow,360,2013-05-03 05:44:00
12:54 AM,32.0,30.9,96,30.32,2.0,North,17.3,-,0.03,Snow,Light Snow,360,2013-05-03 05:54:00
12:57 AM,32.0,30.2,93,30.28,1.8,North,17.3,-,0.01,Snow,Light Snow,360,2013-05-03 05:57:00
1:06 AM,32.0,30.2,93,30.28,1.5,North,17.3,-,0.01,Snow,Light Snow,360,2013-05-03 06:06:00
1:39 AM,32.0,30.2,93,30.27,3.0,North,16.1,24.2,0.03,Snow,Light Snow,10,2013-05-03 06:39:00
1:54 AM,32.0,30.9,96,30.29,3.0,North,18.4,-,0.03,Snow,Light Snow,360,2013-05-03 06:54:00
2:38 AM,32.0,30.2,93,30.23,2.5,North,18.4,-,0.00,Snow,Light Snow,360,2013-05-03 07:38:00
2:54 AM,32.0,30.2,93,30.21,2.5,North,20.7,-,N/A,Snow,Light Snow,10,2013-05-03 07:54:00
3:08 AM,32.0,30.2,93,30.20,3.0,North,19.6,-,0.00,Snow,Light Snow,10,2013-05-03 08:08:00
3:54 AM,32.0,30.0,92,30.22,9.0,North,19.6,26.5,0.00,,Overcast,10,2013-05-03 08:54:00
4:37 AM,32.0,30.2,93,30.19,10.0,North,18.4,-,0.00,,Overcast,360,2013-05-03 09:37:00
4:54 AM,32.0,30.0,92,30.22,9.0,North,16.1,-,0.00,Snow,Light Snow,10,2013-05-03 09:54:00
5:54 AM,32.0,30.0,92,30.20,10.0,North,16.1,-,0.01,,Overcast,10,2013-05-03 10:54:00
6:05 AM,32.0,30.2,93,30.16,9.0,North,18.4,-,0.00,Rain,Light Freezing Rain,10,2013-05-03 11:05:00
6:21 AM,32.0,30.2,93,30.17,6.0,North,16.1,21.9,0.00,Rain,Light Freezing Rain,360,2013-05-03 11:21:00
6:54 AM,32.0,30.0,92,30.21,7.0,North,12.7,-,0.01,Rain,Light Freezing Rain,10,2013-05-03 11:54:00
7:10 AM,32.0,30.2,93,30.18,2.0,North,13.8,-,0.01,Rain,Light Freezing Rain,10,2013-05-03 12:10:00
7:25 AM,32.0,30.2,93,30.18,2.5,North,13.8,-,0.04,Snow,Light Snow,360,2013-05-03 12:25:00
7:36 AM,32.0,30.2,93,30.18,3.0,North,12.7,-,0.05,Snow,Light Snow,10,2013-05-03 12:36:00
7:38 AM,32.0,30.2,93,30.18,2.5,North,12.7,-,0.05,Snow,Light Snow,10,2013-05-03 12:38:00
7:51 AM,32.0,30.2,93,30.18,1.8,North,13.8,-,0.06,Snow,Light Snow,360,2013-05-03 12:51:00
7:52 AM,32.0,30.2,93,30.18,1.8,North,13.8,-,0.06,Snow,Light Snow,360,2013-05-03 12:52:00
7:54 AM,32.0,30.0,92,30.21,1.8,North,12.7,-,0.07,Snow,Light Snow,360,2013-05-03 12:54:00
8:05 AM,32.0,30.2,93,30.17,2.0,North,13.8,-,0.02,Snow,Light Snow,360,2013-05-03 13:05:00
8:09 AM,32.0,30.2,93,30.17,3.0,North,13.8,-,0.02,Snow,Light Snow,10,2013-05-03 13:09:00
8:54 AM,32.0,30.0,92,30.16,6.0,North,16.1,-,0.05,,Overcast,360,2013-05-03 13:54:00
9:06 AM,32.0,30.2,93,30.13,6.0,North,16.1,-,0.01,,Overcast,10,2013-05-03 14:06:00
9:17 AM,32.0,30.2,93,30.12,9.0,North,15.0,-,0.02,,Overcast,10,2013-05-03 14:17:00
9:54 AM,33.1,30.0,89,30.15,9.0,North,15.0,-,0.05,Rain,Light Rain,10,2013-05-03 14:54:00
10:54 AM,33.1,30.9,92,30.13,8.0,North,15.0,-,0.03,Rain,Light Rain,360,2013-05-03 15:54:00
11:54 AM,33.1,30.9,92,30.10,7.0,North,17.3,-,0.06,Rain,Light Rain,10,2013-05-03 16:54:00
12:54 PM,33.1,30.9,92,30.10,5.0,North,13.8,-,0.08,Rain,Light Rain,10,2013-05-03 17:54:00
1:54 PM,34.0,32.0,92,30.08,9.0,North,13.8,-,0.06,Rain,Light Rain,10,2013-05-03 18:54:00
2:54 PM,34.0,32.0,92,30.07,7.0,North,13.8,-,0.07,Rain,Light Rain,10,2013-05-03 19:54:00
3:54 PM,35.1,32.0,89,30.07,7.0,North,10.4,-,0.05,Rain,Light Rain,360,2013-05-03 20:54:00
4:54 PM,35.1,33.1,92,30.04,8.0,North,17.3,-,0.03,Rain,Light Rain,350,2013-05-03 21:54:00
5:54 PM,35.1,33.1,92,30.06,10.0,North,8.1,-,0.03,Rain,Light Rain,360,2013-05-03 22:54:00
6:54 PM,35.1,33.1,92,30.04,10.0,North,15.0,-,0.01,Rain,Light Rain,360,2013-05-03 23:54:00
7:54 PM,35.1,33.1,92,30.03,10.0,North,12.7,-,0.02,Rain,Light Rain,360,2013-05-04 00:54:00
8:54 PM,35.1,34.0,96,30.04,7.0,North,11.5,-,0.04,Rain,Light Rain,360,2013-05-04 01:54:00
9:54 PM,36.0,34.0,93,30.03,10.0,North,11.5,-,0.04,Rain,Light Rain,350,2013-05-04 02:54:00
10:31 PM,35.6,33.8,93,29.99,8.0,North,13.8,-,0.02,Rain,Light Rain,350,2013-05-04 03:31:00
10:54 PM,36.0,34.0,93,30.05,5.0,North,8.1,-,0.05,Rain,Rain,10,2013-05-04 03:54:00
11:16 PM,35.6,33.8,93,29.97,6.0,North,13.8,-,0.08,Rain,Light Rain,350,2013-05-04 04:16:00
11:54 PM,36.0,34.0,93,30.01,3.0,North,9.2,-,0.18,Rain,Heavy Rain,350,2013-05-04 04:54:00
11:59 PM,35.6,33.8,93,29.98,3.0,North,12.7,-,0.03,Rain,Heavy Rain,10,2013-05-04 04:59:00